RH
26 28 28 27 27 28 28 26 25 24 23 23 24 25 26 26 26 26 26 26 25 25 24 24 24 24 23 23 22 21 23 20
32 33 33 31 30 29 30 29 30 29 29 30 31 31 32 32 33 32 31 29 28 28 28 29 28 28 28 28 27 27 27 28
39 40 41 40 39 37 37 35 35 33 33 35 35 36 36 36 35 33 32 31 32 34 33 33 32 31 31 32 32 32 31 31
44 50 48 45 42 40 39 39 38 37 37 39 38 38 38 36 35 34 33 33 35 35 35 35 36 36 38 38 39 39 38 37
51 53 53 52 51 47 43 41 38 37 37 37 35 35 35 33 32 33 33 34 36 38 39 39 39 41 42 42 42 43 43 41
56 58 57 56 53 51 44 45 42 39 37 35 33 32 30 29 28 29 32 37 40 41 42 43 44 44 45 46 46 46 45 44
66 63 59 58 52 47 47 47 48 46 43 39 37 35 33 30 26 26 32 36 40 44 45 46 46 47 48 48 50 51 51 48
68 67 64 59 57 57 58 54 55 50 45 40 38 37 34 30 25 23 26 29 37 43 47 48 49 51 52 54 56 58 56 56
61 59 59 58 56 58 57 53 56 57 52 46 40 34 31 29 26 21 20 19 27 35 42 51 56 58 59 60 62 62 61 59
67 62 58 56 60 60 61 59 58 57 52 45 38 32 31 27 22 20 18 19 18 21 34 45 56 61 61 65 68 65 63 61
66 64 65 61 65 64 61 58 59 56 52 48 45 40 32 28 28 24 22 18 18 18 21 29 40 53 61 65 68 67 66 67
65 64 62 59 61 65 60 55 57 54 57 55 52 45 37 37 32 30 25 18 17 19 20 18 23 30 37 53 66 69 68 69
72 67 64 58 58 59 60 57 62 63 58 57 51 46 46 38 37 32 27 21 16 16 20 21 17 20 28 34 39 56 70 73
72 67 66 64 62 64 63 66 64 63 63 47 52 51 48 42 40 36 32 24 21 19 19 20 21 17 21 29 34 36 39 47
71 66 64 66 66 70 75 70 64 65 56 55 53 51 49 45 43 39 33 29 22 22 21 16 18 21 18 18 23 33 38 37
67 68 66 66 74 73 66 64 65 62 58 49 47 50 50 47 44 40 35 28 23 20 20 18 14 17 21 17 14 19 29 38
75 76 73 77 73 67 65 61 61 55 49 45 45 47 48 46 44 41 38 32 27 24 19 18 17 17 23 18 16 12 14 23
82 82 81 75 69 69 61 58 55 46 40 39 42 44 47 52 49 44 41 37 31 29 24 20 19 19 20 20 18 17 15 15
81 79 76 71 62 55 51 43 37 35 36 41 45 45 46 47 54 50 47 44 39 37 33 31 26 27 24 23 22 20 19 19